Temp
12 12 13 12 12 12 13 13 14 15 14 14 15 16 16 15 15 15 15 15 14 12 12 11 11 10 10 10 10 9 9 8 8 9 9 9 9 9 9 9 9 9 9 9
13 13 13 12 12 12 12 13 14 14 14 14 15 16 16 16 16 16 15 15 15 13 13 12 11 11 11 11 10 10 9 9 9 9 9 9 8 8 8 8 8 8 8 8
12 12 13 12 12 12 12 13 14 13 14 15 15 15 16 16 16 16 16 16 15 14 13 13 12 11 11 11 11 10 10 9 9 9 9 9 9 9 9 9 8 8 8 8
12 12 12 12 12 12 12 13 13 14 13 14 15 16 17 17 17 17 17 17 16 15 14 13 12 12 11 11 11 11 10 10 10 9 9 9 9 9 9 8 8 8 8 8
12 12 12 12 12 12 12 13 13 14 14 14 15 14 16 16 17 17 17 17 17 15 14 14 13 12 11 11 11 11 11 11 10 10 10 9 9 9 9 9 7 7 8 8
11 11 11 12 12 12 13 13 13 14 14 15 14 14 17 17 17 17 17 17 17 16 15 14 13 12 12 11 11 11 11 11 11 10 10 10 9 9 9 9 9 9 9 9
12 13 13 12 12 12 13 13 14 15 15 16 14 13 16 17 17 17 18 17 17 16 15 14 14 13 13 13 12 11 11 11 11 11 10 10 9 9 9 9 9 9 9 9
12 13 13 13 13 13 14 14 15 14 15 16 14 15 16 17 17 18 18 18 17 16 16 15 14 14 13 13 13 12 11 11 11 11 11 10 10 9 9 9 9 9 9 9
12 13 14 13 13 14 14 14 14 14 13 13 15 15 16 16 17 18 18 18 17 16 16 15 15 14 14 13 13 13 12 11 11 11 11 11 10 10 10 10 9 9 9 9
12 12 14 13 13 13 14 14 14 14 15 15 15 14 16 16 17 18 18 18 17 17 16 16 15 15 14 14 14 13 12 12 11 11 11 11 11 10 10 10 10 9 9 9
13 12 13 13 14 14 14 13 13 13 14 16 16 16 16 16 16 17 18 17 17 17 16 16 16 15 15 14 14 14 13 13 12 12 11 12 11 11 10 10 10 10 9 9
13 12 12 13 14 14 14 14 13 14 13 13 14 16 16 16 16 17 17 17 17 17 17 17 16 16 15 15 15 14 14 13 13 12 11 11 12 11 11 11 10 10 10 9
12 12 12 14 14 14 13 14 14 14 14 14 15 16 16 16 16 16 17 17 17 17 17 17 17 16 16 16 15 14 14 14 13 12 12 11 12 12 11 11 11 10 10 10
11 11 12 13 13 12 12 13 13 13 14 15 14 16 16 16 16 16 16 16 17 17 17 17 17 17 16 16 15 15 14 14 13 13 12 12 11 12 11 11 11 11 10 10
10 10 11 11 12 12 12 12 13 13 13 13 16 15 16 16 16 16 16 16 16 16 16 16 16 16 16 16 15 15 14 14 14 13 13 12 11 11 11 11 11 11 11 10
9 8 9 9 10 11 11 12 12 13 13 13 13 14 15 15 15 16 16 16 16 16 16 16 16 16 16 15 15 15 14 14 14 13 13 12 11 11 11 11 11 11 11 11
8 7 8 9 9 10 10 11 11 12 13 13 13 13 14 14 15 15 15 15 16 16 16 16 16 16 16 15 15 15 14 14 14 13 13 12 12 11 11 11 11 11 11 11
7 7 6 7 8 9 10 10 11 11 12 12 13 13 13 13 14 14 14 14 15 15 15 15 15 15 15 15 15 15 15 15 14 14 13 12 12 12 11 11 11 11 11 11
6 6 5 6 8 9 9 9 10 10 10 10 10 11 12 12 12 13 14 14 14 14 14 15 15 15 15 15 15 15 14 14 14 13 14 12 12 12 12 12 12 11 11 11
6 6 5 5 7 8 8 9 9 9 9 9 9 10 10 11 10 10 11 11 11 11 12 13 14 14 14 14 15 14 14 13 12 11 12 12 11 11 11 11 11 11 11 11
5 5 5 5 5 6 7 7 7 7 7 6 8 9 9 9 9 8 8 10 10 10 11 10 10 11 12 12 13 13 12 12 11 11 11 11 11 11 11 10 11 11 11 11
4 4 4 4 4 6 5 5 6 5 4 5 5 6 7 7 7 8 8 9 8 8 8 8 9 9 10 10 11 11 12 12 9 10 10 10 10 11 11 10 10 11 11 11
3 2 2 3 3 4 4 4 4 4 4 4 5 5 6 6 6 7 8 8 7 7 7 8 8 8 9 8 9 9 10 10 9 9 8 8 10 10 10 10 10 10 10 10
1 2 1 2 3 3 3 2 3 3 4 3 4 4 5 5 5 6 6 7 7 8 7 8 8 7 8 8 8 8 8 9 9 8 8 8 9 10 10 9 10 10 10 10
0 1 1 1 2 2 2 2 2 3 3 3 4 4 4 5 5 5 5 5 6 6 6 7 7 7 7 7 7 7 7 8 9 9 7 8 9 10 10 10 10 10 10 10
-0 -0 -0 -0 -0 0 1 2 2 2 2 3 3 4 4 4 4 5 5 5 5 6 6 6 6 6 6 6 7 7 7 7 7 7 8 9 9 10 9 10 10 10 10 10
Height
3184 3186 3186 3191 3192 3192 3192 3191 3190 3189 3190 3187 3184 3183 3182 3181 3180 3180 3180 3181 3183 3184 3184 3184 3183 3183 3183 3183 3185 3187 3189 3192 3194 3196 3199 3202 3205 3207 3208 3211 3214 3217 3219 3221
3183 3182 3186 3188 3190 3190 3190 3189 3188 3187 3186 3185 3181 3180 3179 3178 3177 3177 3177 3177 3180 3182 3182 3183 3183 3182 3182 3183 3184 3185 3187 3189 3192 3194 3197 3200 3203 3205 3206 3208 3211 3214 3216 3219
3181 3183 3183 3185 3187 3188 3188 3188 3188 3188 3182 3181 3178 3174 3174 3174 3172 3172 3172 3173 3175 3178 3180 3182 3182 3182 3182 3181 3182 3184 3186 3187 3190 3192 3194 3196 3198 3200 3202 3204 3207 3211 3215 3216
3179 3180 3181 3182 3183 3185 3186 3187 3186 3185 3183 3181 3179 3174 3169 3169 3168 3168 3169 3170 3171 3174 3175 3178 3180 3181 3181 3182 3182 3183 3184 3186 3188 3189 3191 3193 3196 3199 3201 3203 3204 3207 3211 3214
3178 3177 3177 3179 3181 3183 3185 3184 3183 3182 3180 3179 3178 3177 3167 3166 3166 3167 3166 3167 3168 3170 3172 3176 3178 3180 3181 3181 3182 3182 3183 3184 3186 3188 3189 3191 3192 3195 3196 3198 3199 3201 3205 3210
3174 3175 3175 3177 3179 3181 3181 3182 3181 3179 3178 3178 3176 3176 3164 3164 3164 3164 3165 3164 3165 3167 3169 3173 3176 3178 3179 3180 3181 3182 3183 3183 3184 3186 3188 3189 3190 3192 3194 3197 3197 3197 3202 3207
3172 3170 3171 3173 3175 3177 3179 3181 3180 3177 3176 3174 3174 3173 3164 3163 3163 3161 3161 3162 3162 3165 3167 3170 3173 3175 3177 3179 3180 3182 3182 3183 3184 3185 3186 3187 3188 3189 3192 3194 3197 3199 3202 3206
3170 3169 3167 3168 3170 3173 3176 3178 3177 3176 3173 3173 3172 3168 3162 3161 3160 3158 3159 3160 3160 3163 3166 3169 3172 3175 3176 3178 3180 3181 3182 3183 3183 3184 3184 3185 3185 3186 3189 3192 3194 3197 3201 3204
3168 3166 3164 3165 3166 3170 3171 3172 3174 3175 3173 3173 3167 3164 3159 3159 3158 3157 3158 3160 3161 3163 3165 3168 3171 3173 3175 3177 3178 3180 3181 3182 3183 3183 3183 3184 3184 3184 3186 3189 3192 3194 3197 3200
3167 3166 3164 3164 3164 3165 3166 3169 3170 3170 3169 3167 3163 3161 3159 3158 3156 3157 3158 3160 3161 3163 3165 3167 3169 3171 3174 3176 3177 3178 3179 3181 3182 3182 3182 3182 3182 3183 3184 3185 3188 3191 3194 3196
3162 3165 3163 3162 3162 3163 3164 3164 3165 3166 3165 3162 3161 3158 3157 3156 3156 3155 3157 3159 3160 3162 3164 3166 3168 3170 3172 3173 3175 3176 3177 3178 3179 3180 3181 3181 3181 3181 3182 3183 3184 3187 3190 3192
3161 3161 3158 3157 3158 3158 3159 3160 3161 3162 3162 3160 3160 3157 3156 3156 3155 3154 3155 3157 3159 3160 3161 3163 3165 3167 3168 3170 3172 3174 3175 3175 3176 3178 3178 3179 3178 3179 3179 3180 3182 3184 3186 3188
3158 3157 3156 3154 3154 3152 3153 3153 3154 3155 3156 3156 3156 3153 3154 3154 3155 3154 3154 3155 3157 3158 3159 3160 3162 3163 3164 3166 3168 3170 3171 3172 3172 3173 3175 3175 3175 3176 3177 3178 3179 3180 3182 3184
3155 3154 3155 3154 3152 3150 3150 3150 3149 3150 3150 3149 3148 3148 3149 3151 3151 3152 3152 3153 3154 3155 3157 3158 3159 3160 3161 3163 3165 3166 3167 3167 3167 3168 3170 3171 3172 3172 3173 3174 3176 3177 3179 3181
3150 3149 3148 3147 3146 3144 3143 3143 3144 3142 3143 3142 3143 3142 3144 3146 3146 3148 3150 3151 3152 3153 3154 3155 3156 3157 3158 3159 3160 3161 3162 3162 3163 3163 3165 3167 3168 3168 3169 3171 3172 3174 3176 3178
3145 3144 3142 3141 3141 3139 3136 3136 3137 3135 3135 3135 3136 3137 3138 3139 3141 3143 3145 3146 3148 3149 3150 3152 3153 3153 3153 3155 3156 3156 3156 3157 3158 3159 3160 3162 3163 3165 3166 3167 3168 3170 3173 3175
3140 3139 3138 3134 3136 3133 3129 3131 3131 3130 3129 3131 3132 3134 3135 3135 3136 3137 3138 3139 3141 3143 3145 3146 3148 3149 3149 3150 3149 3150 3152 3153 3154 3155 3156 3158 3159 3161 3163 3163 3164 3166 3169 3170
3131 3132 3133 3130 3131 3125 3124 3124 3125 3124 3123 3124 3126 3128 3128 3129 3130 3131 3133 3134 3135 3136 3138 3139 3141 3143 3144 3145 3146 3147 3148 3149 3150 3150 3152 3154 3155 3157 3158 3160 3161 3163 3165 3167
3125 3126 3126 3125 3122 3120 3120 3119 3119 3118 3118 3118 3117 3120 3121 3121 3122 3124 3126 3127 3128 3130 3131 3133 3135 3137 3139 3141 3142 3142 3143 3144 3145 3147 3149 3150 3151 3152 3154 3155 3158 3160 3161 3164
3123 3122 3122 3121 3119 3114 3112 3112 3113 3113 3115 3114 3113 3114 3115 3117 3120 3122 3122 3122 3122 3125 3125 3127 3128 3130 3132 3134 3136 3137 3137 3139 3142 3143 3144 3146 3148 3149 3150 3152 3153 3155 3157 3159
3120 3118 3117 3116 3115 3112 3110 3108 3108 3111 3114 3108 3109 3110 3110 3112 3114 3117 3119 3118 3117 3120 3124 3125 3124 3122 3124 3128 3129 3130 3130 3131 3133 3134 3139 3141 3143 3143 3144 3146 3147 3149 3151 3153
3118 3117 3115 3113 3111 3110 3107 3107 3108 3106 3104 3104 3104 3104 3106 3107 3109 3110 3112 3111 3112 3114 3115 3117 3116 3115 3118 3119 3122 3124 3122 3119 3119 3124 3128 3137 3140 3139 3140 3140 3141 3141 3143 3145
3118 3116 3115 3115 3110 3107 3105 3105 3104 3103 3102 3101 3100 3100 3101 3101 3102 3103 3104 3105 3105 3107 3108 3108 3108 3109 3111 3113 3115 3116 3115 3111 3114 3119 3115 3122 3134 3134 3134 3135 3137 3137 3136 3137
3113 3111 3109 3107 3106 3104 3103 3101 3099 3097 3097 3096 3096 3095 3095 3096 3095 3096 3096 3097 3098 3098 3099 3100 3100 3101 3103 3105 3106 3107 3108 3109 3110 3103 3115 3124 3128 3125 3125 3128 3129 3129 3129 3130
3110 3106 3102 3099 3097 3096 3095 3095 3092 3091 3090 3089 3088 3088 3088 3088 3088 3088 3089 3090 3090 3092 3093 3092 3093 3094 3095 3096 3098 3100 3102 3100 3102 3106 3110 3119 3116 3114 3118 3120 3119 3118 3120 3120
3104 3101 3099 3093 3092 3087 3084 3083 3083 3080 3080 3081 3079 3079 3079 3077 3078 3079 3079 3080 3081 3082 3084 3085 3087 3088 3087 3088 3089 3091 3091 3093 3096 3099 3103 3105 3105 3106 3108 3109 3108 3110 3110 3111
Wind_Speed
32 28 29 22 18 17 15 17 16 11 18 20 14 10 8 12 12 12 12 9 3 8 5 4 1 4 10 16 17 18 18 17 18 19 17 16 13 15 15 18 17 15 15 14
27 32 26 22 18 17 15 17 17 17 8 22 15 14 12 13 13 13 14 14 4 9 7 5 5 1 5 9 12 14 16 17 17 18 17 18 18 17 16 20 20 18 18 16
23 10 20 28 23 19 17 15 16 16 21 18 16 19 8 13 13 12 13 15 12 11 11 7 7 5 3 5 7 9 11 11 14 17 19 19 20 21 23 21 21 21 19 17
17 22 21 11 16 15 12 8 9 14 17 9 15 15 15 8 6 10 10 6 7 12 18 15 11 11 7 6 6 10 10 10 11 13 16 16 16 16 18 19 22 24 23 20
9 6 15 23 14 12 9 8 10 13 14 12 9 8 11 7 10 10 5 4 5 16 17 16 15 14 11 6 5 5 9 11 11 9 10 13 15 17 18 19 23 27 28 24
13 16 15 10 14 9 9 10 12 11 8 8 8 5 12 5 11 9 8 4 7 19 17 18 20 16 15 12 8 5 4 6 10 11 10 9 15 18 17 14 12 20 27 23
10 13 16 17 18 19 14 10 4 4 3 4 5 8 18 12 10 14 5 6 9 20 18 21 23 18 16 11 10 7 3 2 6 9 10 9 12 19 19 17 14 15 19 19
6 2 2 20 26 20 18 14 7 3 3 10 10 8 9 13 17 11 7 4 10 18 14 19 19 18 16 12 8 6 5 1 2 6 9 9 8 13 20 22 18 16 18 18
4 3 3 11 7 23 18 17 17 13 13 7 8 13 19 6 13 7 7 7 9 12 15 20 19 15 15 12 8 7 6 6 2 2 5 7 6 7 13 20 21 21 20 21
12 13 5 5 5 12 18 13 6 9 5 6 5 8 11 7 6 7 7 8 9 14 17 20 19 16 15 12 10 11 13 10 7 5 4 8 9 8 11 16 21 21 21 21
17 16 10 11 12 11 15 17 20 12 9 7 5 7 9 9 10 5 11 10 11 12 14 16 17 15 16 15 11 11 13 13 12 7 7 6 9 9 10 13 17 20 22 23
7 10 13 19 18 15 16 15 12 11 7 8 6 19 13 8 9 1 9 14 10 12 9 13 20 19 18 15 14 11 10 10 14 14 10 9 9 11 11 10 13 18 21 23
7 7 9 13 13 12 15 20 22 20 19 16 13 18 14 15 13 10 5 13 15 15 12 9 6 18 20 16 13 12 10 9 14 17 15 11 10 11 12 12 13 16 19 20
14 14 15 20 20 22 25 20 19 22 17 18 21 25 20 18 14 9 8 10 11 13 13 8 7 11 19 17 15 15 13 14 15 18 17 14 12 12 13 14 15 16 18 19
18 18 21 23 27 29 30 27 22 24 25 22 23 25 24 22 16 14 13 14 11 8 10 8 9 9 14 17 20 16 18 19 19 20 18 16 15 15 15 15 16 17 18 18
15 13 17 19 21 25 25 29 24 22 21 25 27 20 22 20 19 19 17 20 21 17 14 14 14 12 13 14 12 17 19 21 23 21 19 18 18 17 15 15 15 16 17 19
24 18 16 23 18 24 26 20 22 24 25 21 20 19 17 14 18 18 24 23 22 20 17 18 20 18 19 12 9 13 16 18 21 20 19 20 20 19 17 16 17 15 15 16
27 26 18 23 18 19 22 21 23 24 27 27 28 28 27 24 23 23 22 20 20 20 21 21 24 26 21 15 13 13 14 12 18 21 22 21 22 21 20 19 17 16 16 16
13 15 14 15 19 23 17 14 14 13 14 16 17 19 23 23 23 27 28 28 25 20 21 22 28 25 25 25 21 21 19 18 21 21 19 22 23 22 22 21 19 18 18 18
8 9 11 10 10 9 11 25 22 16 12 9 8 17 21 17 13 14 12 11 10 14 20 23 25 30 31 32 32 28 24 21 22 21 21 23 25 25 24 23 22 22 23 23
15 9 9 11 11 10 14 13 14 13 12 14 17 17 15 12 19 29 30 33 40 35 34 22 17 21 21 22 31 28 24 22 23 24 25 25 27 29 28 26 27 28 28 29
6 4 3 4 6 6 8 6 8 8 10 12 6 10 17 19 18 15 15 14 14 16 18 20 19 19 20 19 22 27 32 35 28 21 18 19 27 29 32 32 31 31 32 32
5 6 7 7 8 17 21 19 17 13 10 11 13 12 12 13 14 19 32 37 37 38 31 35 31 30 30 26 24 25 29 34 40 30 27 10 21 25 28 33 35 36 36 36
15 21 21 24 19 17 16 14 16 19 21 23 22 20 19 18 18 20 21 23 26 31 37 41 35 36 33 31 26 29 28 34 42 37 20 24 28 26 26 27 29 32 34 36
18 23 23 26 27 24 25 26 28 28 27 28 29 28 29 29 27 24 24 27 27 27 26 27 28 27 26 28 29 27 28 29 32 35 25 29 27 25 21 25 28 32 34 36
17 16 18 23 26 30 33 31 31 36 39 39 39 40 38 37 35 33 32 29 28 29 31 32 31 30 30 30 31 29 28 26 25 30 41 39 33 32 26 26 26 26 29 30
Wind_Direction
218 228 235 239 250 264 276 271 277 277 324 336 340 322 285 280 278 292 295 298 286 158 187 195 196 196 189 198 197 201 205 207 213 215 214 208 221 224 216 210 213 216 218 207
223 231 237 246 250 260 271 270 265 298 313 327 326 314 299 273 279 284 287 286 276 217 180 196 205 197 192 189 199 205 208 217 216 215 217 217 221 215 216 216 217 215 217 216
229 224 237 246 252 263 263 261 276 311 315 320 329 320 331 313 294 285 281 280 264 213 181 187 176 188 175 196 202 195 199 205 208 209 212 215 218 216 219 223 225 220 219 220
250 243 237 235 234 238 265 248 293 314 324 314 324 306 318 315 291 290 278 235 241 204 181 185 191 192 166 153 176 200 193 189 201 212 216 219 227 229 235 236 234 226 220 218
233 268 243 234 234 235 243 270 300 314 313 309 304 296 287 330 56 47 13 283 240 184 178 189 188 177 186 179 152 166 200 201 194 197 208 213 217 215 219 225 232 222 217 215
251 257 255 232 226 230 248 293 305 305 293 268 279 258 290 317 359 341 324 280 207 183 178 185 176 181 193 206 199 162 142 196 207 202 204 210 216 211 214 215 213 202 203 208
290 270 250 238 245 242 246 269 278 244 213 280 274 262 262 290 316 322 293 239 178 182 177 192 188 192 197 194 209 197 161 142 194 205 208 212 223 218 208 202 197 189 194 200
294 325 307 231 230 237 241 236 238 268 244 304 289 260 272 301 310 313 221 207 192 182 201 183 182 185 193 190 188 213 215 214 191 193 199 207 221 222 211 209 207 204 204 203
257 270 315 319 267 233 237 234 247 248 270 280 267 275 298 298 299 299 185 188 191 189 187 185 186 193 192 197 204 195 210 223 231 210 208 202 210 221 216 215 216 211 208 209
267 277 300 295 241 224 224 245 231 221 248 268 272 279 268 348 338 192 166 163 177 191 197 191 190 195 191 192 195 205 207 209 227 242 229 213 202 203 211 217 220 220 217 217
235 242 269 282 264 246 237 243 249 245 230 256 283 285 295 295 333 219 177 163 175 193 207 210 205 198 198 207 214 216 229 241 250 242 243 225 214 213 215 217 220 221 222 223
248 240 263 273 281 272 245 242 257 244 241 211 246 276 307 316 339 218 204 190 203 205 198 211 218 217 214 208 217 225 227 242 235 234 240 235 225 220 221 223 220 219 222 226
262 247 286 287 276 273 251 258 262 251 247 247 248 265 263 288 301 325 249 234 236 217 205 208 227 223 218 212 210 220 223 223 229 234 232 241 236 223 215 217 223 223 222 224
273 269 263 266 275 287 286 282 277 254 242 248 242 263 272 283 285 277 282 233 224 215 205 210 239 256 226 217 223 228 230 228 232 234 227 234 228 217 214 217 220 221 221 222
273 267 269 269 273 276 281 280 274 266 261 244 259 259 267 271 267 246 238 215 204 222 218 224 245 236 220 223 228 234 231 230 233 235 234 224 222 221 220 219 224 226 225 221
262 279 275 276 270 273 281 271 266 265 261 258 258 259 259 251 249 241 236 230 232 248 225 227 235 257 240 227 231 229 235 232 234 239 236 222 225 226 227 224 222 227 226 226
277 273 274 269 271 275 272 272 262 252 251 251 255 256 243 237 231 234 230 227 228 229 232 234 227 233 235 240 224 223 221 225 229 239 237 227 224 226 230 226 223 223 222 220
265 266 260 267 269 264 269 260 266 269 261 261 263 254 252 251 244 242 238 226 219 222 225 226 222 223 232 232 236 231 228 237 231 234 240 233 224 224 224 226 216 213 215 214
266 252 252 245 251 259 264 251 244 248 254 254 248 250 249 241 233 232 234 235 235 223 222 221 218 226 229 233 244 252 244 239 236 232 249 238 228 226 223 223 220 217 215 216
290 282 243 243 254 258 250 244 243 229 233 220 232 237 232 241 249 247 237 249 261 271 242 233 230 232 233 234 237 243 236 228 225 217 225 233 231 225 224 223 222 223 225 224
301 276 256 249 246 263 262 280 260 239 249 267 242 236 239 230 234 243 253 258 261 259 261 268 268 253 246 253 248 241 232 227 222 214 222 228 229 227 223 221 223 225 228 235
286 300 288 276 249 238 293 290 254 232 229 243 248 249 250 257 246 232 249 245 254 263 274 268 269 275 272 256 249 253 241 233 229 216 215 237 234 233 231 227 225 226 232 237
281 286 287 287 276 293 303 303 292 281 270 256 258 267 263 268 267 254 257 263 273 273 275 274 279 279 271 274 280 285 258 251 253 237 225 267 242 235 242 242 238 238 237 238
280 279 282 285 276 280 286 266 267 270 270 271 271 275 272 263 265 264 267 267 262 250 258 262 267 270 275 273 272 277 275 262 268 273 245 257 254 246 241 240 243 247 248 250
295 291 292 285 286 281 267 254 252 254 257 263 268 268 267 267 266 261 256 254 253 253 253 253 253 258 266 270 272 270 269 271 268 271 249 256 259 248 255 256 254 250 252 258
322 306 298 288 289 285 281 275 269 267 262 258 259 259 261 262 261 259 253 252 254 254 253 255 257 261 263 265 269 270 262 262 259 250 242 254 267 271 265 261 264 264 260 263